[[{"header":{"parameterUnit":"m.s-1","parameterCategory":1,"la1":30.2991,"la2":30.254,"lo1":-89.0895,"lo2":-89.0444,"dy":0.0017,"dx":0.0017,"nx":28,"ny":28,"refTime":"2025-08-20T21:00:00:Z","depth":0,"parameterNumber":2,"parameterNumberName":"U-component_of_WINDS"},"data":[0,0,0,0,0,0,0,0,0,0,0,0,0,0,0,0,0,0,0,0,0,0,0,0,0,0,0,0,0,0,0,0,0,0,0,0,0,0,0,0,0,0,0,0,0,0,0,0,0,0,0,0,0,0,0,0,0,0,1.9844,1.9846,0,1.9963,1.9964,1.9966,1.9985,1.9984,1.9983,1.9982,2.0103,2.0107,2.0111,0,0,0,0,0,0,0,0,0,0,0,0,0,1.9633,1.9636,1.9844,1.9846,1.9847,1.9963,1.9964,1.9966,1.9985,1.9984,1.9982,1.9981,2.0102,2.0107,2.0112,0,0,0,0,0,0,0,0,0,0,0,0,0,1.9735,1.9638,1.9844,1.9871,1.9874,1.9963,1.9965,1.9967,1.9985,1.9984,1.9982,1.998,2.01,2.0106,2.0112,2.0183,0,0,2.0132,2.0135,0,0,0,0,0,0,0,0,1.9729,1.9743,1.9865,1.9869,1.9873,1.9957,1.9934,2.0039,1.9985,1.9943,1.9982,1.998,2.0056,2.0066,2.0092,2.0188,2.0194,2.0132,2.0136,2.0139,2.0141,0,0,0,0,0,0,0,1.9722,1.9738,1.9891,1.9867,1.9872,1.9876,1.9889,1.9954,2.0007,1.9947,1.9948,1.9962,2.0058,2.0085,2.0094,2.0196,2.0132,2.0138,2.0142,2.0144,2.0353,2.0355,0,0,0,0,0,0,1.971,1.9732,1.9888,1.9895,1.9796,1.9881,1.9896,1.9932,2.0006,2.0016,1.9963,1.9962,2.0075,2.0087,2.0099,2.0184,2.0139,2.0145,2.0148,2.0351,2.0354,2.0355,0,0,0,0,0,0,1.9706,1.9724,1.9883,1.9814,1.9834,1.9886,1.9927,1.9935,1.9963,2.0019,2.0028,1.9982,2.0075,2.009,2.0161,2.0188,2.0148,2.0153,2.0349,2.0352,2.0355,2.0355,0,0,0,0,0,0,1.97,1.9722,1.975,1.9814,1.9838,1.9943,1.9929,1.9939,1.9973,1.9974,2.0039,2.0048,2.0075,2.0152,2.0167,2.0196,2.0158,2.0347,2.0351,2.0354,2.0353,2.0358,2.0362,0,0,0,0,0,1.9692,1.9746,1.9751,1.977,1.9874,1.9945,1.9959,1.9988,1.9976,2.0003,2.0039,2.0046,2.0183,2.0159,2.0177,2.0208,2.0345,2.035,2.0353,2.0351,2.0357,2.0362,0,0,0,0,0,0,1.9684,1.9755,1.9762,1.9839,1.9885,1.9948,1.9984,1.9993,2.0045,2.0043,2.0078,2.0092,2.0161,2.0192,2.0163,2.0278,2.0263,2.0271,2.0255,2.0261,2.0265,2.0256,2.0164,0,0,0,0,0,1.9692,1.9744,1.9803,1.9865,1.9888,1.9932,1.9964,1.9983,2.0033,2.0053,2.0094,2.0142,2.0196,2.0231,2.0283,2.0358,2.0371,2.0388,2.0393,2.0396,2.0402,2.0441,2.0448,2.0368,2.0368,2.0368,0,0,1.9707,1.9752,1.9783,1.9864,1.9903,1.9955,1.9949,2.0005,2.0044,2.0062,2.013,2.0162,2.0218,2.029,2.0325,2.0318,2.0427,2.0401,2.0403,2.0407,2.0446,2.0453,2.046,2.0371,2.0371,2.037,0,0,1.9761,1.9802,1.9856,1.9895,1.9953,1.9982,1.9995,2.0056,2.0077,2.0147,2.016,2.0207,2.03,2.0338,2.037,2.0437,2.0444,2.0453,2.0475,2.0513,2.0519,2.0525,2.0546,2.0554,2.0459,2.0459,2.0459,0,1.9773,1.9853,1.9884,1.9939,1.9973,1.9991,2.0045,2.0082,2.0154,2.0177,2.0169,2.0284,2.0323,2.0404,2.042,2.0446,2.046,2.0445,2.0516,2.0522,2.0527,2.0548,2.0557,2.046,2.046,2.0459,2.0459,0,1.9863,1.9918,1.9955,2.0024,2.0062,2.0117,2.0155,2.0191,2.0205,2.0234,2.0304,2.0352,2.0413,2.0434,2.045,2.0516,2.051,2.0509,2.0494,2.0535,2.0555,2.0564,2.046,2.046,2.046,2.046,0,0,1.9916,2.0,2.0012,2.0043,2.0107,2.015,2.0205,2.0265,2.0293,2.0343,2.0388,2.0465,2.0463,2.0499,2.052,2.0553,2.06,2.0547,2.0549,2.0553,2.0673,2.0672,2.0681,2.0606,2.0607,2.0609,2.0668,0,1.9976,2.0074,2.0103,2.0185,2.0234,2.0252,2.0299,2.0343,2.0372,2.0418,2.0449,2.0502,2.0497,2.0518,2.0553,2.0587,2.0624,2.0583,2.0647,2.0649,2.063,2.0692,2.0692,2.0745,2.0676,2.0677,2.0678,0,2.006,2.0109,2.0196,2.0252,2.0274,2.0316,2.0372,2.0416,2.0466,2.0484,2.0523,2.054,2.0596,2.0579,2.0657,2.0628,2.0656,2.0677,2.068,2.0685,2.0665,2.0697,2.0764,2.0771,2.0692,2.0691,2.069,0,2.0086,2.0175,2.0238,2.0263,2.0331,2.036,2.0389,2.0438,2.0471,2.052,2.0541,2.0596,2.0626,2.0668,2.0698,2.0684,2.0772,2.0759,2.0788,2.0787,2.0805,2.0803,2.0874,2.0826,2.0826,2.0825,2.0825,0,2.015,2.0202,2.025,2.0289,2.0346,2.0378,2.0435,2.0465,2.0508,2.0551,2.057,2.0611,2.065,2.0695,2.072,2.0779,2.0793,2.0808,2.0813,2.0805,2.0803,2.0823,2.0819,2.0828,2.0827,2.0827,2.0826,0,2.0189,2.0224,2.0293,2.0351,2.0366,2.0406,2.0456,2.0493,2.0522,2.0577,2.0591,2.0636,2.069,2.0725,2.0795,2.0811,2.0875,2.0881,2.0858,2.086,2.0886,2.0883,2.0971,2.0984,2.0929,2.0929,2.093,0,2.0226,2.0266,2.0328,2.0358,2.0387,2.0437,2.047,2.0502,2.0536,2.0595,2.0625,2.0681,2.0726,2.0812,2.0851,2.0904,2.0909,2.0937,2.0917,2.0907,2.0907,2.0903,2.0907,2.0939,2.094,2.094,2.094,0,2.0287,2.0302,2.0349,2.0402,2.0442,2.0485,2.0529,2.0553,2.0592,2.063,2.0685,2.072,2.0791,2.0845,2.0901,2.0931,2.0942,2.0946,2.0955,2.0946,2.0931,2.0937,2.0864,2.0944,2.0943,2.0943,2.0943,2.0943,2.0325,2.036,2.0408,2.046,2.0496,2.0536,2.0573,2.0605,2.0652,2.0711,2.0728,2.0785,2.0832,2.0908,2.0939,2.0984,2.098,2.0994,2.0998,2.1,2.0999,2.0925,2.0995,2.0995,2.0995,2.0995,2.0994,0,2.0385,2.0416,2.0464,2.0523,2.0563,2.057,2.0618,2.0651,2.0701,2.0744,2.0789,2.0851,2.0903,2.0945,2.0999,2.1026,2.1033,2.1039,2.1037,2.1043,2.1,2.0986,2.1033,2.1033,2.1033,2.1033,2.1033,2.1033,2.0421,2.048,2.05,2.0577,2.0608,2.0664,2.069,2.0726,2.0761,2.0829,2.0872,2.09,2.0942,2.0998,2.1046,2.1057,2.1075,2.108,2.1092,2.1051,2.1046,2.1042,2.1029,2.1084,2.1084,2.1131,2.1131,2.1131]},{"header":{"parameterUnit":"m.s-1","parameterCategory":1,"la1":30.2991,"la2":30.254,"lo1":-89.0895,"lo2":-89.0444,"dy":0.0017,"dx":0.0017,"nx":28,"ny":28,"refTime":"2025-08-20T21:00:00:Z","depth":0,"parameterNumber":3,"parameterNumberName":"V-component_of_WINDS"},"data":[0,0,0,0,0,0,0,0,0,0,0,0,0,0,0,0,0,0,0,0,0,0,0,0,0,0,0,0,0,0,0,0,0,0,0,0,0,0,0,0,0,0,0,0,0,0,0,0,0,0,0,0,0,0,0,0,0,0,2.0502,2.0502,0,2.0472,2.0472,2.0471,2.0412,2.0411,2.041,2.0409,2.0378,2.0378,2.0379,0,0,0,0,0,0,0,0,0,0,0,0,0,2.0507,2.0508,2.0502,2.0502,2.0501,2.0472,2.0472,2.0471,2.0413,2.0411,2.041,2.0409,2.0378,2.0378,2.0379,0,0,0,0,0,0,0,0,0,0,0,0,0,2.0494,2.0508,2.0502,2.0469,2.0465,2.0472,2.0472,2.0471,2.0413,2.0411,2.0409,2.0408,2.0378,2.0378,2.0379,2.0416,0,0,2.038,2.038,0,0,0,0,0,0,0,0,2.0495,2.0494,2.0474,2.0471,2.0467,2.0444,2.0462,2.0453,2.0413,2.0433,2.0409,2.0407,2.0402,2.04,2.0398,2.0414,2.0413,2.038,2.038,2.038,2.038,0,0,0,0,0,0,0,2.0496,2.0495,2.049,2.0474,2.047,2.0455,2.0451,2.046,2.0427,2.0431,2.0427,2.0424,2.0399,2.0398,2.0397,2.0413,2.038,2.038,2.038,2.0381,2.0455,2.0457,0,0,0,0,0,0,2.0502,2.0496,2.0491,2.0489,2.0477,2.0456,2.0452,2.0453,2.0427,2.0421,2.0425,2.0421,2.0398,2.0396,2.0396,2.0435,2.038,2.0381,2.0381,2.0454,2.0456,2.0458,0,0,0,0,0,0,2.0502,2.0502,2.0492,2.0491,2.0489,2.0458,2.046,2.0454,2.0452,2.0423,2.0417,2.043,2.0397,2.0395,2.0411,2.0434,2.0381,2.0381,2.0452,2.0454,2.0457,2.0517,0,0,0,0,0,0,2.0503,2.0502,2.0517,2.0492,2.0489,2.0509,2.0462,2.0454,2.0453,2.0447,2.0425,2.042,2.0395,2.041,2.0411,2.0433,2.0381,2.0449,2.0453,2.0456,2.0513,2.0521,2.0529,0,0,0,0,0,2.0503,2.0535,2.0518,2.0517,2.0507,2.051,2.0508,2.0479,2.0455,2.0469,2.0449,2.0421,2.0431,2.0413,2.0413,2.0435,2.0448,2.0452,2.0456,2.0509,2.052,2.0529,0,0,0,0,0,0,2.0564,2.0531,2.0512,2.0537,2.0527,2.05,2.0517,2.0491,2.0488,2.0482,2.0446,2.0442,2.0462,2.045,2.043,2.0469,2.0435,2.0439,2.0475,2.0485,2.0493,2.0495,2.0382,0,0,0,0,0,2.058,2.0586,2.0557,2.0583,2.0578,2.0549,2.0549,2.0527,2.0515,2.051,2.0492,2.0481,2.0482,2.0483,2.0482,2.0511,2.0504,2.0527,2.0535,2.0541,2.0545,2.0557,2.0566,2.0471,2.0471,2.0471,0,0,2.0614,2.0597,2.0603,2.0594,2.0584,2.059,2.0545,2.0554,2.0558,2.0512,2.0525,2.0511,2.0496,2.0518,2.0527,2.0509,2.057,2.0546,2.0552,2.0552,2.0562,2.0571,2.0579,2.0473,2.0473,2.0472,0,0,2.0678,2.0667,2.0685,2.0675,2.066,2.0639,2.0644,2.0621,2.061,2.0623,2.0587,2.0591,2.0594,2.0584,2.0579,2.0638,2.0611,2.0639,2.068,2.0693,2.07,2.0707,2.0726,2.0734,2.0643,2.0643,2.0643,0,2.0722,2.073,2.0698,2.0709,2.0705,2.0663,2.0681,2.0673,2.0658,2.0656,2.0637,2.0637,2.0624,2.0642,2.0657,2.0655,2.0658,2.0641,2.0702,2.0708,2.0714,2.0732,2.0739,2.0647,2.0646,2.0646,2.0646,0,2.0784,2.079,2.0807,2.0793,2.0791,2.0806,2.0775,2.0778,2.0756,2.0737,2.075,2.0733,2.0727,2.073,2.0709,2.0744,2.0733,2.0709,2.0673,2.0727,2.0743,2.075,2.0652,2.065,2.0649,2.0648,0,0,2.0886,2.0853,2.0859,2.0852,2.0831,2.0834,2.0846,2.084,2.0842,2.0833,2.0841,2.0843,2.0819,2.0814,2.0792,2.0803,2.0848,2.0776,2.0775,2.0789,2.0884,2.0902,2.0911,2.083,2.0832,2.0833,2.0885,0,2.0944,2.0963,2.0934,2.0958,2.0963,2.0922,2.0932,2.092,2.0903,2.0904,2.0884,2.0886,2.0855,2.0852,2.0861,2.0841,2.0867,2.0837,2.0836,2.0837,2.084,2.092,2.0939,2.0989,2.0891,2.0892,2.0893,0,2.1015,2.1008,2.1034,2.1009,2.101,2.102,2.1011,2.1012,2.0997,2.0984,2.0977,2.095,2.0959,2.0926,2.0937,2.0917,2.0915,2.0905,2.0906,2.0904,2.0867,2.0918,2.1005,2.1012,2.0903,2.0902,2.0902,0,2.1085,2.1082,2.1096,2.1091,2.1064,2.1071,2.106,2.1043,2.1041,2.1033,2.1031,2.1024,2.1021,2.1016,2.0987,2.0966,2.1001,2.0966,2.0989,2.0989,2.0997,2.0997,2.1083,2.0998,2.0998,2.0998,2.0998,0,2.1152,2.1169,2.1127,2.1136,2.1152,2.1119,2.1136,2.1121,2.1106,2.111,2.1075,2.108,2.1042,2.1043,2.102,2.1032,2.1031,2.1019,2.1013,2.1021,2.1023,2.1019,2.1014,2.1,2.1,2.0999,2.0999,0,2.1233,2.1206,2.1218,2.1191,2.1184,2.1198,2.1174,2.118,2.116,2.1166,2.1165,2.1134,2.1133,2.1104,2.1096,2.1081,2.1101,2.1088,2.1106,2.1101,2.1125,2.1123,2.1211,2.122,2.1131,2.1132,2.1133,0,2.1277,2.1288,2.1262,2.1262,2.1253,2.1254,2.1251,2.1218,2.1216,2.1199,2.1207,2.1202,2.1197,2.1195,2.1172,2.1165,2.1152,2.1183,2.115,2.1158,2.115,2.1149,2.1149,2.119,2.1191,2.1192,2.1192,0,2.1358,2.1343,2.1341,2.1333,2.133,2.1322,2.1312,2.1315,2.1278,2.1278,2.1275,2.1271,2.1262,2.1258,2.1247,2.1234,2.1207,2.1203,2.1208,2.1216,2.1225,2.1219,2.1123,2.1201,2.12,2.1199,2.1199,2.1199,2.142,2.1428,2.141,2.1408,2.1396,2.1388,2.1392,2.1372,2.137,2.136,2.1341,2.1341,2.1324,2.1306,2.1296,2.1295,2.1278,2.1286,2.1287,2.1289,2.1293,2.1226,2.1293,2.1292,2.1292,2.1292,2.1292,0,2.1498,2.1484,2.1482,2.1469,2.1467,2.1441,2.1429,2.1428,2.1429,2.1415,2.141,2.1406,2.1401,2.1377,2.1369,2.1373,2.136,2.1372,2.137,2.1367,2.1309,2.1305,2.1382,2.1382,2.1382,2.1382,2.1382,2.1382,2.1538,2.1549,2.1532,2.1537,2.1523,2.1523,2.1517,2.1509,2.1497,2.1495,2.149,2.1474,2.1456,2.1446,2.144,2.1432,2.143,2.1446,2.1435,2.1381,2.1372,2.1364,2.1359,2.1446,2.1447,2.1493,2.1493,2.1494]}]]